Weather History for Sheboygan, WI

Change the Weather History Date:

Tuesday, December 11, 2012

  Actual Average Record
Temperature  
Mean Temperature 24 °F -  
Max Temperature 28 °F 33 °F 54 °F (1979)
Min Temperature 19 °F 20 °F -7 °F (1972)
Degree Days  
Heating Degree Days 42    
Moisture  
Dew Point 20 °F    
Average Humidity 85    
Maximum Humidity 100    
Minimum Humidity 61    
Precipitation  
Precipitation 0.00 in - - ()
Sea Level Pressure  
Sea Level Pressure 29.96 in    
Wind  
Wind Speed 5 mph (SW)    
Max Wind Speed 17 mph    
Max Gust Speed 23 mph    
Visibility 8 miles    
Events Snow    
Averages and records for this station are not official NWS values.
T = Trace of Precipitation, MM = Missing Value Source: NWS Daily Summary

Daily Weather History Graph

Daily Weather History Graph

Search for Another Location

Airport:

Trip Planner

Search our weather history database for the weather conditions in past years. The results will help you decide how hot, cold, wet, or windy it might be!

Date:

Astronomy

Dec. 11, 2012 Rise Set
Actual Time 7:15 AM CST 4:14 PM CST
Civil Twilight 6:42 AM CST 4:46 PM CST
Nautical Twilight 6:06 AM CST 5:23 PM CST
Astronomical Twilight 5:31 AM CST 5:58 PM CST
Moon 5:08 AM CST (12/11) 2:54 PM CST (12/11)
Length of Visible Light 10h 04m
Length of Day
8h 58m
Waning Crescent, 4% of the Moon is Illuminated
Dec 11
Waning Crescent
Dec 13
New
Dec 19
First Quarter
Dec 28
Full
Jan 4
Last Quarter

Hourly Weather History & Observations

Time (CST) Temp. Windchill Dew Point Humidity Pressure Visibility Wind Dir Wind Speed Gust Speed Precip Events Conditions
12:53 AM 23.0 °F 18.4 °F 21.9 °F 96% 29.93 in 10.0 mi WSW 3.5 mph - N/A   Overcast
1:53 AM 21.9 °F - 21.0 °F 96% 29.94 in 8.0 mi Calm Calm - N/A   Partly Cloudy
2:10 AM 19.4 °F - 19.4 °F 100% 29.90 in 1.5 mi Calm Calm - N/A   Clear
2:34 AM 19.4 °F - 19.4 °F 100% 29.91 in 1.0 mi Calm Calm - N/A   Scattered Clouds
2:38 AM 19.4 °F - 19.4 °F 100% 29.90 in 4.0 mi Calm Calm - N/A   Scattered Clouds
2:53 AM 19.0 °F - 19.0 °F 100% 29.94 in 6.0 mi Calm Calm - N/A   Mostly Cloudy
3:53 AM 21.9 °F 17.2 °F 21.0 °F 96% 29.94 in 10.0 mi SW 3.5 mph - N/A   Overcast
4:53 AM 25.0 °F 18.1 °F 23.0 °F 92% 29.94 in 6.0 mi SSW 5.8 mph - 0.00 in Snow Light Snow
5:01 AM 24.8 °F 16.9 °F 24.8 °F 100% 29.91 in 7.0 mi SSW 6.9 mph - 0.00 in   Overcast
5:53 AM 23.0 °F 14.7 °F 21.0 °F 92% 29.95 in 10.0 mi SW 6.9 mph - 0.00 in   Mostly Cloudy
6:53 AM 19.9 °F 11.1 °F 18.0 °F 92% 29.95 in 10.0 mi SSW 6.9 mph - N/A   Clear
7:53 AM 19.9 °F 11.1 °F 17.1 °F 89% 29.96 in 10.0 mi SW 6.9 mph - N/A   Clear
8:53 AM 21.9 °F 11.0 °F 19.0 °F 89% 29.96 in 10.0 mi SSW 10.4 mph - N/A   Scattered Clouds
9:53 AM 24.1 °F 14.4 °F 19.0 °F 81% 29.96 in 10.0 mi SW 9.2 mph - N/A   Overcast
10:53 AM 25.0 °F 15.5 °F 18.0 °F 75% 29.94 in 10.0 mi SSW 9.2 mph - N/A   Overcast
11:53 AM 27.0 °F 14.7 °F 17.1 °F 66% 29.92 in 10.0 mi SSW 16.1 mph - N/A   Mostly Cloudy
12:53 PM 28.9 °F 17.7 °F 17.1 °F 61% 29.91 in 10.0 mi SW 15.0 mph - N/A   Overcast
1:53 PM 28.9 °F 17.3 °F 18.0 °F 64% 29.91 in 10.0 mi SW 16.1 mph 23.0 mph N/A   Overcast
2:53 PM 28.0 °F 15.7 °F 19.9 °F 72% 29.93 in 10.0 mi WSW 17.3 mph - N/A   Overcast
3:53 PM 26.1 °F 14.0 °F 18.0 °F 71% 29.96 in 10.0 mi WSW 15.0 mph 20.7 mph N/A   Partly Cloudy
4:53 PM 26.1 °F 16.8 °F 19.0 °F 75% 29.98 in 10.0 mi SW 9.2 mph - N/A   Overcast
5:53 PM 26.1 °F 18.4 °F 19.0 °F 75% 29.99 in 10.0 mi SW 6.9 mph - N/A   Overcast
6:53 PM 26.1 °F 17.6 °F 21.0 °F 81% 30.01 in 10.0 mi SW 8.1 mph - N/A   Overcast
7:53 PM 27.0 °F 17.3 °F 21.0 °F 78% 30.02 in 10.0 mi SW 10.4 mph - N/A   Overcast
8:48 PM 26.6 °F 16.8 °F 21.2 °F 80% 30.00 in 6.0 mi SW 10.4 mph - 0.00 in Snow Light Snow
8:53 PM 27.0 °F 17.3 °F 21.9 °F 81% 30.04 in 4.0 mi SW 10.4 mph - 0.00 in Snow Light Snow
9:13 PM 26.6 °F 18.2 °F 23.0 °F 86% 30.00 in 3.0 mi SW 8.1 mph - 0.00 in Snow Light Snow
9:53 PM 27.0 °F 20.5 °F 23.0 °F 85% 30.04 in 9.0 mi SW 5.8 mph - 0.00 in Snow Light Snow
10:28 PM 26.6 °F 22.6 °F 24.8 °F 93% 30.02 in 7.0 mi SSW 3.5 mph - 0.00 in Snow Light Snow
10:53 PM 27.0 °F - 24.1 °F 89% 30.06 in 9.0 mi Calm Calm - 0.00 in   Overcast
11:53 PM 26.1 °F - 24.1 °F 92% 30.09 in 10.0 mi Calm Calm - N/A   Overcast